Terminal Aerodrome Forecast
Issued by NWS Goodland, KS

Home | Current Version | Previous Version | Text Only | Print | Product List | Glossary On
Versions: 1 2 3 4 5 6 7 8 9 10 11 12 13 14 15
000
FTUS43 KGLD 291132
TAFGLD
TAF
KGLD 291132Z 2912/3012 16012KT P6SM SCT080
     FM291500 17017G25KT P6SM SCT100
     FM291800 17026G39KT P6SM SCT080 BKN200
     FM292300 16025G38KT P6SM VCTS SCT040CB BKN080
     FM300100 16020G30KT 5SM -TSRA BKN035CB
     FM300600 23012KT P6SM SCT030 BKN080=

USA.gov is the U.S. government's official web portal to all federal, state and local government web resources and services.